Flag for Slovenia Weather past 2 weeks in Maribor, Slovenia

Now
50 °F

Cool.


Feels Like: 50 °F
Forecast: 59 / 72 °F
Wind: 1 mph from North

Location: Maribor / Slivnica

Current Time: Aug 1, 2015 at 5:37:38 AM

Latest Report: Aug 1, 2015 at 4:00 AM


Visibility: 8 mi

Pressure: 30.08 "Hg

Humidity: 95%

Dew point: 48 °F

Location of MariborLocation

Historic Weather in Maribor — Graph

°F

Maribor temperature yesterday

Maximum temperature yesterday: 74 °F (at 6:00 PM)
Minimum temperature yesterday: 58 °F (at 12:00 AM)
Average temperature yesterday: 65 °F

Past Weeks' High & Low Weather Summary

 TemperatureHumidityPressure
High94 °F (Jul 19, 5:00 PM)97% (Jul 30, 6:00 AM)30.09 "Hg (Jul 30, 6:00 AM)
Low50 °F (Aug 1, 4:00 AM)36% (Jul 19, 5:00 PM)29.71 "Hg (Jul 25, 2:00 PM)
Average72 °F72%29.91 "Hg
* Reported Jul 17 4:00 AM — Aug 1 4:00 AM, Maribor, Weather by CustomWeather, © 2015

Note: Actual official high and low records may vary slightly from our data, if they occured in-between our weather recording intervals... More about our weather records

Advertising

Maribor weather history for previous 24 hours

 ConditionsComfort  
Time TempWeatherWind HumidityBarometerVisibility
4:00 AM
Sat, Aug 1
50 °FCool.1 mph95%30.08 "Hg8 mi
3:00 AM51 °FCool.1 mph94%30.08 "Hg9 mi
2:00 AM53 °FCool.1 mph92%30.07 "Hg17 mi
1:00 AM53 °FCool.2 mph94%30.09 "Hg11 mi
12:00 AM55 °FCool.1 mph90%30.08 "Hg17 mi
10:00 PM
Fri, Jul 31
59 °FPassing clouds.1 mph82%30.07 "Hg31 mi
9:00 PM62 °FPassing clouds.1 mph81%30.06 "Hg31 mi
8:00 PM70 °FPassing clouds.2 mph53%30.03 "Hg31 mi
7:00 PM73 °FPassing clouds.2 mph36%30.02 "Hg37 mi
6:00 PM74 °FPassing clouds.3 mph36%30.01 "Hg37 mi
5:00 PM74 °FPassing clouds.2 mph36%30.02 "Hg37 mi
4:00 PM73 °FScattered clouds.3 mph37%30.03 "Hg43 mi
3:00 PM72 °FPartly sunny.1 mph48%30.04 "Hg43 mi
2:00 PM72 °FPassing clouds.3 mph45%30.04 "Hg25 mi
1:00 PM70 °FPassing clouds.3 mph52%30.06 "Hg25 mi
12:00 PM69 °FPartly sunny.5 mph58%30.06 "Hg25 mi
11:00 AM66 °FOvercast.5 mph63%30.06 "Hg25 mi
10:00 AM62 °FOvercast.3 mph69%30.07 "Hg25 mi
9:00 AM61 °FOvercast.5 mph72%30.06 "Hg25 mi
8:00 AM59 °FOvercast.5 mph77%30.06 "Hg25 mi
7:00 AM58 °FLight rain. Overcast.5 mph79%30.06 "Hg6 mi
6:00 AM59 °FLight rain. Overcast.5 mph81%30.05 "Hg6 mi
Weather by CustomWeather, © 2015

See weather overviewHow to use our weather pages